星链-34069 (STARLINK-34069)

导读

STARLINK-34069是美国太空探索技术公司SpaceX于2025年7月26日发射的星链(Starlink)系列低轨道卫星。作为星链星座的组成部分,它运行于近地低轨轨道,配备相控阵天线与激光星间链路,可提供高速低延迟的互联网接入服务,助力星链实现全球覆盖,尤其改善偏远地区网络接入,目前已在轨运行超七个月,是SpaceX持续扩展星链星座部署的最新成果之一。

基本信息
目录编号:
64920
目录名称:
STARLINK-34069
国际标识:
2025-157S
轨道中心:
EARTH
卫星名称:
星链-34069
卫星全名:
星链-34069 (STARLINK-34069)
卫星状态:
在轨 (已飞行322 天)
发射日期:
2025-07-26 UTC
国别 :
美国 (US)
星等 :
--
轨道信息
数据来源 国际轨道数据
星历时间: 2026-06-12T21:54:47+0800
1天前
查看轨道信息
半长轴: 6840.792km
偏心率: 0.0001216
轨道倾角: 53.160°
近地点辐角 77.196°
升交点赤经 264.788°
平近点角 282.918°
近地点: 461.823km
远地点: 463.487km
周期: 93.847分钟
每日圈数: 15.344165
详细信息
固有亮度:
5
最大亮度:
2.5
卫星平台:
Starlink V1.0
覆盖范围:
全球
运营商:
太空探索技术公司
运营商所在国:
美国
制造商(研发单位):
太空探索技术公司
制造商所在国:
美国
使用方式:
暂无
卫星简介
Starlink 计划是 SpaceX 推出的全球卫星互联网项目,通过发射低轨道卫星,为全球尤其是偏远地区提供高速、低延迟的互联网服务。自 2019 年起,Starlink 已部署数千颗卫星,旨在缩小全球数字鸿沟,推动互联网普及。该项目还为军事、航空等行业提供通信支持,带来广泛经济效益。
2D轨道图
3D轨道图
轨道高度分析图
轨道倾角分析图
轨道综合分析图
查看轨道综合分析图